Regional Weather Roundup
Issued by NWS Charleston, SC

Current Version | Previous Version | Graphics & Text | Print | Product List | Glossary On
Versions: 1 2 3 4 5 6 7 8 9 10 11 12 13 14 15 16 17 18 19 20 21 22 23 24 25 26 27 28 29 30 31 32 33 34 35 36 37 38 39 40 41 42 43 44 45 46 47 48 49 50
000 ASUS42 KCHS 021926 RWRCHS REGIONAL WEATHER ROUNDUP NATIONAL WEATHER SERVICE CHARLESTON SC 200 PM EST MON MAR 02 2015 NOTE: "FAIR" INDICATES FEW OR NO CLOUDS BELOW 12,000 FEET WITH NO SIGNIFICANT WEATHER AND/OR OBSTRUCTIONS TO VISIBILITY. NOT ALL STATIONS ARE QUALITY CONTROLLED BY THE NATIONAL WEATHER SERVICE. USE DATA WITH CAUTION...ESPECIALLY DEWPOINT OBSERVATIONS. SCZ027-030-031-034>040-042>050-022000- ...SOUTHEAST SOUTH CAROLINA... CITY SKY/WX TMP DP RH WIND PRES REMARKS N CHARLESTON MOSUNNY 70 57 63 W8 30.21F WATERFRONT PRK N/A 66 N/A N/A W7 N/A MOUNT PLEASANT FAIR 70 59 68 W6 30.19F PINOPOLIS N/A 61 54 77 VRB2 30.12F MONCKS CORNER FAIR 73 59 60 W6 30.18F SUMMERVILLE FAIR 72 59 64 W7 30.20F BEAUFORT MCAS PTSUNNY 66 57 72 VRB7 30.23F BEAUFORT ARPT FAIR 68 61 77 SW7 30.22F HILTON HEAD IS MOSUNNY 66 57 72 SE5 30.25F WALTERBORO PTCLDY 72 61 68 SW7 30.21F ALLENDALE FAIR 72 59 64 VRB5G14 30.20F ...SOUTHERN MIDLANDS AND PEE DEE... CITY SKY/WX TMP DP RH WIND PRES REMARKS GEORGETOWN NOT AVBL KINGSTREE NOT AVBL ORANGEBURG MOSUNNY 72 55 55 W12G20 30.19F BARNWELL FAIR 75 59 57 W9G17 30.20F AIKEN FAIR 73 55 53 W10 30.22F MANNING FAIR 70 14 11 W5 30.20F COLUMBIA MOSUNNY 71 56 58 NW7 30.18F SUMTER MOSUNNY 68 55 62 NW10 30.18F FLORENCE MOSUNNY 60 51 72 VRB3 30.22F MYRTLE BEACH PTSUNNY 61 54 77 NW10 30.23F N MYRTLE BEACH PTSUNNY 59 52 77 NW9 30.21F $$ GAZ063-065-086>088-099>101-113>116-118-119-134>141-150-022000- ...SOUTHEAST GEORGIA... CITY SKY/WX TMP DP RH WIND PRES REMARKS SAVANNAH ARPT PTSUNNY 70 57 63 W6 30.24F HUNTER AAF SUNNY 73 60 64 NW8 30.21F FORT STEWART MOSUNNY 72 60 64 SW3 30.22F STATESBORO MOSUNNY 71 60 67 W9 30.23F SYLVANIA PTCLDY 71 61 71 W8 30.23F CLAXTON FAIR 70 61 73 W10G16 30.24F ...CSRA...CENTRAL AND FAR SOUTHEAST GEORGIA... CITY SKY/WX TMP DP RH WIND PRES REMARKS THOMSON PTSUNNY 73 61 64 W8 30.23F AUGUSTA-BUSH SUNNY 73 56 54 SW10 30.20F AUGUSTA-DANIEL SUNNY 74 56 53 VRB6 30.20F SWAINSBORO NOT AVBL VIDALIA SUNNY 70 61 73 W5 30.25F EASTMAN FAIR 71 61 70 W8 30.28F HAZLEHURST FAIR 71 62 72 NW5 30.24F ALMA CLOUDY 64 57 78 W5 30.27F WAYCROSS CLOUDY 72 64 76 W5 30.26F JESUP CLOUDY 72 63 73 NW9 30.25F BAXLEY FAIR 70 61 73 NW6 30.25F BRUNSWICK MOSUNNY 72 61 68 W7 30.25F SAINT SIMONS CLOUDY 67 58 72 W7 30.26F $$ SCZ027-028-034-036>038-045-046-048>050-GAZ119-141-022000- ...LAKE AND SUPPLEMENTAL COASTAL OBSERVATIONS... STATION/POSITION TIME TEMP WIND PRES WAVE SWELL AIR SEA DIR/SP/G HT/PER HT/PER/DIR (UTC) (F) (DEG/KT/KT) (MB) (FT/S) (FT/S/D) UPR LAKE MARION NOT AVBL WINYAH BAY 1800 65 290/ 6 1022.0 LAKE MURRAY 1900 62 160/ 4/ 4 1022.0F ACE BASIN NERRS 1800 59 260/ 2 1025.0 FORT PULASKI 1900 64 49 280/ 9/ 11 1024.2F SAPELO ISLAND 1900 69 250/ 2 1024.0F $$ ANZ835-935-AMZ111-154-330-350-352-354-370-450-454-472-022000- ...C-MAN AND BUOY OBSERVATIONS... STATION/POSITION TIME TEMP WIND PRES WAVE SWELL AIR SEA DIR/SP/G HT/PER HT/PER/DIR (UTC) (F) (DEG/KT/KT) (MB) (FT/S) (FT/S/D) BUOY 41004 1850 59 68 260/ 12/ 14 1023.1F 4/10 3/10 BUOY 41008 1850 53 53 210/ 4/ 4 1024.7F 3/ 9 3/ 80/ 9 FOLLY BEACH CMAN 1900 54 220/ 10/ 12 1023.6F CAPERS NEARSHORE NOT AVBL FRIPP NEARSHORE 1800 53 230/ 6/ 6 1024.4F STATION/POSITION TIME TEMP WIND PRES WAVE SWELL AIR SEA DIR/SP/G HT/PER HT/PER/DIR (UTC) (F) (DEG/KT/KT) (MB) (FT/S) (FT/S/D) 5E ST. MARYS GA 1821 54 N/A 3/ 8 FRYING PAN BUOY 1850 53 62 300/ 10/ 14 1023.7F 4/ 7 3/120/ 7 BUOY 41025 NOT AVBL CAPE LOOKOUT NC 1900 54 300/ 3/ 3 1022.9F BUOY 41002 1850 72 74 290/ 12/ 16 1022.9F 5/ 9 5/ 90/ 9 BUOY 41010 1820 74 76 240/ 4/ 6 1024.9F ST AUGUSTINE FL 1900 57 140/ 5/ 6 1024.6F $$

USA.gov is the U.S. government's official web portal to all federal, state and local government web resources and services.